TimeCST,TemperatureF,Dew PointF,Humidity,Sea Level PressureIn,VisibilityMPH,Wind Direction,Wind SpeedMPH,Gust SpeedMPH,PrecipitationIn,Events,Conditions,WindDirDegrees,DateUTC
12:52 AM,30.9,28.9,92,29.54,9.0,North,6.9,-,N/A,,Clear,350,2013-12-03 06:52:00
1:52 AM,30.0,28.0,92,29.55,9.0,NNW,4.6,-,N/A,,Clear,340,2013-12-03 07:52:00
2:52 AM,33.1,28.9,85,29.57,10.0,NW,6.9,-,N/A,,Clear,320,2013-12-03 08:52:00
3:52 AM,34.0,30.0,85,29.57,10.0,NNW,5.8,-,N/A,,Clear,330,2013-12-03 09:52:00
4:52 AM,35.1,28.9,78,29.58,10.0,North,12.7,-,N/A,,Mostly Cloudy,350,2013-12-03 10:52:00
5:52 AM,33.1,28.9,85,29.58,9.0,North,10.4,-,N/A,,Clear,360,2013-12-03 11:52:00
6:40 AM,33.1,30.0,89,29.56,6.0,North,9.2,-,N/A,,Overcast,10,2013-12-03 12:40:00
6:49 AM,32.0,30.2,93,29.56,5.0,NNE,9.2,-,N/A,,Overcast,20,2013-12-03 12:49:00
6:52 AM,33.1,30.0,89,29.59,5.0,NNE,9.2,-,N/A,,Overcast,20,2013-12-03 12:52:00
7:52 AM,33.1,30.9,92,29.62,5.0,North,11.5,-,N/A,,Overcast,10,2013-12-03 13:52:00
8:52 AM,34.0,30.9,89,29.65,5.0,North,10.4,-,N/A,,Overcast,10,2013-12-03 14:52:00
9:44 AM,36.0,30.9,82,29.63,7.0,NNE,11.5,-,N/A,,Mostly Cloudy,30,2013-12-03 15:44:00
9:52 AM,36.0,30.9,82,29.66,7.0,North,8.1,-,N/A,,Mostly Cloudy,10,2013-12-03 15:52:00
10:50 AM,37.4,30.2,75,29.64,8.0,North,10.4,-,N/A,,Scattered Clouds,10,2013-12-03 16:50:00
10:52 AM,37.9,30.9,76,29.66,8.0,North,9.2,-,N/A,,Partly Cloudy,10,2013-12-03 16:52:00
11:07 AM,39.0,32.0,76,29.65,8.0,North,12.7,-,N/A,,Mostly Cloudy,350,2013-12-03 17:07:00
11:52 AM,41.0,32.0,70,29.64,8.0,NNE,10.4,-,N/A,,Scattered Clouds,20,2013-12-03 17:52:00
12:52 PM,43.0,33.1,68,29.63,10.0,North,12.7,-,N/A,,Partly Cloudy,360,2013-12-03 18:52:00
1:48 PM,42.8,33.8,70,29.60,10.0,North,15.0,-,N/A,,Mostly Cloudy,360,2013-12-03 19:48:00
1:52 PM,42.1,33.1,70,29.63,10.0,North,17.3,-,N/A,,Mostly Cloudy,350,2013-12-03 19:52:00
2:52 PM,39.0,32.0,76,29.65,10.0,North,15.0,-,N/A,,Overcast,360,2013-12-03 20:52:00
3:15 PM,37.9,32.0,79,29.65,10.0,NNW,18.4,-,N/A,,Overcast,340,2013-12-03 21:15:00
3:52 PM,37.0,32.0,82,29.68,9.0,North,15.0,-,N/A,,Overcast,350,2013-12-03 21:52:00
4:52 PM,37.0,30.9,79,29.69,9.0,North,15.0,-,N/A,,Overcast,10,2013-12-03 22:52:00
5:52 PM,35.1,30.9,85,29.74,10.0,North,16.1,-,N/A,,Overcast,360,2013-12-03 23:52:00
6:52 PM,35.1,30.0,82,29.74,9.0,North,13.8,-,N/A,,Overcast,360,2013-12-04 00:52:00
7:52 PM,34.0,30.0,85,29.73,10.0,North,8.1,-,N/A,,Overcast,10,2013-12-04 01:52:00
8:52 PM,34.0,30.0,85,29.74,10.0,North,12.7,-,N/A,,Overcast,350,2013-12-04 02:52:00
9:52 PM,33.1,28.9,85,29.72,10.0,North,12.7,-,N/A,,Overcast,10,2013-12-04 03:52:00
10:52 PM,32.0,28.9,88,29.73,10.0,North,10.4,-,N/A,,Overcast,360,2013-12-04 04:52:00
11:52 PM,30.9,28.0,89,29.75,10.0,NNW,11.5,-,N/A,,Overcast,330,2013-12-04 05:52:00